Location: Stockholm
(59.3333°N, 18.0500°E)
Time: 10:45:28
(UTC+02:00)

ISS - Visible Passes

Search period start: 22 September 2018 00:00
Search period end: 02 October 2018 00:00
Orbit: 403 x 408 km, 51.6° (Epoch: 22 September)

Date Brightness Start Highest point End Pass type
(mag) Time Alt. Az. Time Alt. Az. Time Alt. Az.
25 Sep -1.3 21:05:25 10° SSW 21:05:53 12° SSW 21:05:53 12° SSW visible
26 Sep -1.9 20:14:02 10° SSW 20:16:04 15° SSE 20:16:08 15° SSE visible
27 Sep -1.5 19:22:57 10° S 19:24:24 12° SSE 19:25:51 10° SE visible
27 Sep -1.8 20:57:31 10° SW 20:58:58 18° SSW 20:58:58 18° SSW visible
28 Sep -2.1 20:05:53 10° SW 20:08:19 19° SSE 20:09:02 18° SSE visible
28 Sep -0.9 21:41:35 10° WSW 21:41:42 11° WSW 21:41:42 11° WSW visible
29 Sep -1.8 19:14:24 10° SSW 19:16:35 17° SSE 19:18:46 10° ESE visible
29 Sep -2.0 20:49:44 10° SW 20:51:43 20° SSW 20:51:43 20° SSW visible
30 Sep -2.1 19:57:58 10° SW 20:00:34 21° S 20:01:42 18° SSE visible
30 Sep -0.9 21:34:03 10° WSW 21:34:21 11° SW 21:34:21 11° SW visible
01 Oct -2.0 19:06:17 10° SW 19:08:46 20° S 19:11:16 10° ESE visible
01 Oct -1.9 20:42:04 10° WSW 20:44:18 20° SSW 20:44:18 20° SSW visible
